Notices

Due to recent upgrades, we are currently experiencing delays in populating our data report tables. We thank you for your patience during this time of difficulty as we are working in rectifying this issue as soon as possible. If you have any questions or concerns, please contact us.

Hourly Data Report for October 13, 2003

SHERBROOKE A
QUEBEC

45°26'00.000" N
71°41'00.000" W
241.40 m
7028124
71610
YSC

Download Data

Hourly Data (October 2003)
Hourly Data Report for October 13, 2003
TIME
LST
Temp Definition
°C
Dew Point Definition
°C
Rel Hum Definition
%
Precip. Amount Definition
mm

Wind Dir Definition
10's deg

Wind Spd Definition
km/h
Visibility Definition
km
Stn Press Definition
kPa
Hmdx Definition


Wind Chill Definition


Weather Definition


00:00 14.5 11.4 82   28 17 15.0 98.05      
01:00 12.5 9.3 81   27 15 15.0 98.09      
02:00 10.7 8.2 85   27 17 15.0 98.13      
03:00 9.2 7.1 87   27 11 15.0 98.18      
04:00 7.8 6.2 90   27 7 15.0 98.22      
05:00 6.6 5.6 93   28 7 15.0 98.26      
06:00 5.8 5.1 95   27 6 15.0 98.27      
07:00 7.2 6.6 96     0 24.1 98.31     Clear
08:00 10.2 7.9 86   28 15 24.1 98.31     Mainly Clear
09:00 12.1 8.0 76   26 19 24.1 98.33     Mostly Cloudy
10:00 12.8 6.6 66   27 15 24.1 98.30     Mostly Cloudy
11:00 12.5 5.5 62   29 17 24.1 98.31     Mostly Cloudy
12:00 12.5 5.4 62   28 22 24.1 98.29     Mostly Cloudy
13:00 14.5 5.9 56   28 20 24.1 98.26     Mostly Cloudy
14:00 15.4 5.2 51   29 19 24.1 98.22     Mainly Clear
15:00 15.2 3.8 46   29 20 24.1 98.23     Mainly Clear
16:00 13.9 4.8 54   29 24 24.1 98.26     Mainly Clear
17:00 11.3 4.5 63   27 9 15.0 98.34      
18:00 9.1 4.1 71   26 9 15.0 98.40      
19:00 7.4 3.5 76   26 7 15.0 98.44      
20:00 4.1 2.1 87   21 6 15.0 98.48      
21:00 2.7 1.7 93   19 6 15.0 98.53      
22:00 2.3 0.9 90     0 15.0 98.56      
23:00 2.0 1.1 94   12 4 12.9 98.57      

Notes on Data Quality.

Legend

  • E = Estimated
  • M = Missing
  • NA = Not Available*
  • [empty] = Indicates an unobserved value
Date modified: